Hourly Data Report for October 05, 2014

All times are specified in Local Standard Time (LST). Add 1 hour to adjust for Daylight Saving Time where and when it is observed.

RANKIN INLET A
NUNAVUT

62°48'38.000" N
92°06'53.000" W
32.30 m
2303405
71083
YRT

Download Data

Hourly Data (October 2014)
Hourly Data Report for October 5, 2014
Temp Definition
°C
Dew Point Temp Definition
°C
Rel Hum Definition
%
Wind Dir Definition
10's deg

Wind Spd Definition
km/h
Visibility Definition
km
Stn Press Definition
kPa
Hmdx Definition


Wind Chill Definition


Weather Definition


TIME
00:00 Legend Double Dagger -1.2 -2.8 89 3 48 24.1 100.19   -10 Cloudy
01:00 Legend Double Dagger -1.1 -2.4 91 3 38 24.1 100.16   -9 LegendNANA
02:00 Legend Double Dagger -1.1 -2.5 90 3 46 16.1 100.14   -9 Snow
03:00 Legend Double Dagger -1.2 -2.5 91 3 41 12.9 100.13   -9 Snow
04:00 Legend Double Dagger -0.9 -2.2 91 2 40 12.9 100.05   -9 Snow
05:00 Legend Double Dagger -0.2 -1.3 92 4 43 12.9 100.05   -8 Snow
06:00 Legend Double Dagger 0.2 -0.8 93 4 39 12.9 100.03     Snow
07:00 Legend Double Dagger 0.4 -0.9 91 5 43 9.7 99.98     Rain,Snow
08:00 Legend Double Dagger 0.5 -0.8 91 4 41 8.1 99.94     Rain,Snow
09:00 Legend Double Dagger 0.6 -0.7 91 4 40 8.1 99.87     Rain,Snow
10:00 Legend Double Dagger 0.8 -0.4 92 4 45 8.1 99.84     Rain,Snow
11:00 Legend Double Dagger 0.8 -0.5 91 4 44 6.4 99.77     Rain,Snow,Fog
12:00 Legend Double Dagger 0.7 -0.6 91 5 43 6.4 99.73     Rain,Snow,Fog
13:00 Legend Double Dagger 0.7 -0.8 90 4 50 9.7 99.64     Rain,Snow,Fog
14:00 Legend Double Dagger 0.6 -0.9 90 4 55 19.3 99.62     Rain,Snow
15:00 Legend Double Dagger 0.9 -0.9 88 4 49 19.3 99.53     Rain,Snow
16:00 Legend Double Dagger 1.0 -0.5 90 4 52 12.9 99.49     Rain,Snow
17:00 Legend Double Dagger 1.1 -0.4 90 5 48 16.1 99.44     Rain,Snow
18:00 Legend Double Dagger 1.3 -0.2 90 5 49 12.9 99.39     Rain,Snow
19:00 Legend Double Dagger 1.5 -0.1 89 6 49 12.9 99.36     Rain,Snow
20:00 Legend Double Dagger 1.4 -0.1 90 7 48 12.9 99.31     Rain,Snow
21:00 Legend Double Dagger 1.4 0.2 92 6 47 12.9 99.31     Rain,Snow
22:00 Legend Double Dagger 1.5 0.2 91 7 44 9.7 99.28     Rain,Snow
23:00 Legend Double Dagger 1.5 0.2 91 7 40 9.7 99.27     Rain,Snow

Notes on Data Quality.

Legend

  • E = Estimated
  • M = Missing
  • NA = Not Available
  • ‡ = Partner data that is not subject to review by the National Climate Archives
Date modified: